Location: �quirre
(50.4736°N, 2.2351°E)
Time: 09:57:29
(UTC+00:00)

Cosmos 2237 Rocket - Pass Details

Date: 07 August 2020
Orbit: 836 x 849 km, 71.0° (Epoch: 20 September)

Event Time Altitude Azimuth Distance (km) Brightness Sun altitude
Rises 02:32:37 0° 321° (NW) 3,410 5.5 -15.0°
Reaches altitude 10° 02:35:40 10° 305° (NW) 2,468 4.6 -14.7°
Maximum altitude 02:39:40 20° 260° (W) 1,837 3.5 -14.3°
Enters shadow 02:41:01 19° 241° (WSW) 1,916 3.5 -14.1°
